STARLINK-11076 (58709 NORAD) Tracking and Keplerian Element Data

This shows tracking and keplerian element data for the satellite.

Feedback or suggestion? Click here.




ElementValue
Catalog58709
NameSTARLINK-11076
Epoch Orbit260
Epoch Day12.91667824
Epoch Year2024
RAAN199.7385
Inclination53.1728
Eccentricity0.0003057
Argument of Perigee50.3979
Mean Anonmoly86.0909
Mean Motion15.76929582
Decay Rate0.00615219
L11 58709U 24002E 24012.91667824 .00615219 00000+0 34674-2 0 9998
L22 58709 53.1728 199.7385 0003057 50.3979 86.0909 15.76929582 2601



Live tracking and technical data element details for STARLINK-11076 (NORAD 58709). STARLINK-11076 can be tracked NOW for your location showing map with azimuth and elevation plus other details from your city location.







IsCatalogInMostPopularTable: catalog: 58709, numindb: 28
Update: records affected: 1



GetName: 58709 STARLINK-11076

Hit Count: updated at: Wed, 17 Apr 2024 02:31:25 GMT